KE7YUP Weather Reports


time (UTC)temp
F
wind
direction
speed
knots
gust
knots
rain 1hr
in
rain 24hr
in
rain mn
in
humidity
%
barometer
mb
20260906191216 80 171 12.2 19.1 0.00 0.00 0.00 30 1018.8
20260906190216 80 178 13.0 25.2 0.00 0.00 0.00 31 1018.7
20260906185216 80 169 9.6 13.9 0.00 0.00 0.00 30 1019.0
20260906184216 80 174 7.8 14.8 0.00 0.00 0.00 32 1019.5
20260906183216 79 151 8.7 15.6 0.00 0.00 0.00 32 1019.2
20260906182216 79 128 12.2 18.2 0.00 0.00 0.00 33 1019.1
20260906181216 79 113 12.2 18.2 0.00 0.00 0.00 32 1019.9
20260906180216 78 131 9.6 16.5 0.00 0.00 0.00 32 1020.3
20260906175216 78 147 7.0 13.9 0.00 0.00 0.00 31 1020.1
20260906174236 78 135 10.4 17.4 0.00 0.00 0.00 30 1020.6
20260906173236 78 142 8.7 11.3 0.00 0.00 0.00 30 1020.6
20260906172216 78 151 7.8 12.2 0.00 0.00 0.00 31 1020.9
20260906171216 77 150 8.7 13.0 0.00 0.00 0.00 31 1020.6
20260906170216 76 154 9.6 12.2 0.00 0.00 0.00 33 1020.5
20260906165216 76 165 7.0 9.6 0.00 0.00 0.00 33 1020.8
20260906164236 76 154 6.1 12.2 0.00 0.00 0.00 33 1020.7
20260906163236 75 160 7.8 10.4 0.00 0.00 0.00 34 1020.7
20260906162215 75 98 8.7 11.3 0.00 0.00 0.00 34 1020.8
20260906161216 74 118 2.6 6.1 0.00 0.00 0.00 36 1020.5
20260906160215 73 119 4.3 10.4 0.00 0.00 0.00 36 1020.6
20260906155215 73 106 5.2 8.7 0.00 0.00 0.00 37 1020.7
20260906154216 72 116 6.1 9.6 0.00 0.00 0.00 38 1020.9
20260906153215 72 143 3.5 8.7 0.00 0.00 0.00 42 1021.1
20260906152215 71 94 6.1 7.8 0.00 0.00 0.00 44 1020.9
20260906151215 70 100 3.5 7.8 0.00 0.00 0.00 46 1021.2
20260906150215 70 87 3.5 7.0 0.00 0.00 0.00 44 1021.2
20260906145215 71 92 2.6 3.5 0.00 0.00 0.00 41 1021.2
20260906144215 72 72 3.5 6.1 0.00 0.00 0.00 35 1021.4
20260906143215 73 98 3.5 5.2 0.00 0.00 0.00 34 1021.7
20260906142215 71 0.0 0.9 0.00 0.00 0.00 36 1021.4
20260906141215 71 0.0 0.0 0.00 0.00 0.00 36 1021.6
20260906140216 70 100 0.0 0.9 0.00 0.00 0.00 37 1021.2
20260906135215 68 107 0.9 1.7 0.00 0.00 0.00 38 1021.0
20260906134215 66 355 0.9 1.7 0.00 0.00 0.00 39 1020.7
20260906133235 65 355 0.9 1.7 0.00 0.00 0.00 40 1020.7
20260906132215 65 355 0.9 1.7 0.00 0.00 0.00 40 1020.6
20260906131215 65 0.0 0.0 0.00 0.00 0.00 41 1020.4
20260906130235 64 355 0.9 1.7 0.00 0.00 0.00 41 1020.1
20260906125215 64 355 0.9 1.7 0.00 0.00 0.00 42 1020.2
20260906124236 64 355 1.7 3.5 0.00 0.00 0.00 42 1020.2
20260906123235 63 355 1.7 2.6 0.00 0.00 0.00 43 1020.2
20260906122215 64 355 0.9 1.7 0.00 0.00 0.00 42 1020.2
20260906121235 64 355 3.5 4.3 0.00 0.00 0.00 43 1020.2
20260906120235 65 355 2.6 3.5 0.00 0.00 0.00 43 1020.5
20260906115215 64 355 1.7 2.6 0.00 0.00 0.00 44 1020.2
20260906114215 64 355 3.5 4.3 0.00 0.00 0.00 45 1020.4
20260906113215 64 355 2.6 4.3 0.00 0.00 0.00 44 1020.4
20260906112215 64 355 4.3 5.2 0.00 0.00 0.00 45 1020.4
20260906111215 64 355 2.6 3.5 0.00 0.00 0.00 45 1020.4
20260906110235 64 355 2.6 4.3 0.00 0.00 0.00 46 1020.3
20260906105215 64 355 2.6 3.5 0.00 0.00 0.00 46 1020.4
20260906104215 64 331 3.5 4.3 0.00 0.00 0.00 47 1020.1
20260906103215 64 331 3.5 4.3 0.00 0.00 0.00 46 1020.0
20260906102215 64 331 2.6 3.5 0.00 0.00 0.00 47 1019.9
20260906101217 64 331 0.0 0.9 0.00 0.00 0.00 47 1019.8
20260906100237 64 331 2.6 3.5 0.00 0.00 0.00 45 1019.7
20260906095237 65 144 2.6 3.5 0.00 0.00 0.00 43 1020.0
20260906094217 67 144 0.9 0.9 0.00 0.00 0.00 41 1019.9
20260906093217 68 144 0.9 1.7 0.00 0.00 0.00 40 1019.9
20260906092217 66 306 0.0 1.7 0.00 0.00 0.00 41 1019.6
20260906091237 66 306 1.7 2.6 0.00 0.00 0.00 43 1019.5
20260906090217 66 41 1.7 2.6 0.00 0.00 0.00 43 1019.5
20260906085217 67 41 0.9 1.7 0.00 0.00 0.00 41 1019.8
20260906084217 67 0 1.7 2.6 0.00 0.00 0.00 40 1019.2
20260906083237 67 37 0.9 2.6 0.00 0.00 0.00 41 1019.4
20260906082216 68 57 2.6 3.5 0.00 0.00 0.00 40 1019.5
20260906081218 68 57 1.7 3.5 0.00 0.00 0.00 39 1019.6
20260906080216 68 349 3.5 4.3 0.00 0.00 0.00 36 1019.5
20260906075217 69 249 1.7 2.6 0.00 0.00 0.00 34 1019.8
20260906074216 71 54 1.7 2.6 0.00 0.00 0.00 29 1019.6
20260906073216 70 7 2.6 4.3 0.00 0.00 0.00 28 1019.3
20260906072216 69 68 2.6 3.5 0.00 0.00 0.00 29 1019.1
20260906071216 69 40 1.7 1.7 0.00 0.00 0.00 29 1018.9
20260906070216 69 40 0.9 2.6 0.00 0.00 0.00 29 1019.0
20260906065216 69 173 0.9 1.7 0.00 0.00 0.00 29 1018.9
20260906064236 69 173 1.7 4.3 0.00 0.00 0.00 29 1018.8
20260906063216 69 173 0.9 0.9 0.00 0.00 0.00 29 1018.8
20260906062236 69 224 1.7 4.3 0.00 0.00 0.00 28 1018.7
20260906061257 70 249 2.6 6.1 0.00 0.00 0.00 27 1018.6
20260906060216 72 249 0.9 1.7 0.00 0.00 0.00 26 1018.7
20260906055216 73 0.0 0.9 0.00 0.00 0.00 25 1018.9
20260906054235 74 204 3.5 6.1 0.00 0.00 0.00 24 1018.9
20260906053215 75 202 4.3 7.0 0.00 0.00 0.00 23 1019.1
20260906052216 75 196 5.2 12.2 0.00 0.00 0.00 22 1019.1
20260906051215 76 190 7.8 11.3 0.00 0.00 0.00 21 1019.2
20260906050255 76 202 8.7 13.0 0.00 0.00 0.00 20 1019.2
20260906045215 76 185 7.8 14.8 0.00 0.00 0.00 20 1019.4
20260906044235 76 200 3.5 9.6 0.00 0.00 0.00 20 1019.0
20260906043215 76 208 6.1 9.6 0.00 0.00 0.00 21 1018.6
20260906042215 75 196 2.6 4.3 0.00 0.00 0.00 21 1018.6
20260906041215 75 244 0.9 3.5 0.00 0.00 0.00 21 1018.2
20260906040215 75 236 0.9 2.6 0.00 0.00 0.00 21 1018.2
20260906035235 75 206 2.6 5.2 0.00 0.00 0.00 20 1018.1
20260906034215 75 237 3.5 4.3 0.00 0.00 0.00 20 1017.9
20260906033215 76 198 1.7 4.3 0.00 0.00 0.00 20 1018.2
20260906032215 76 196 4.3 7.0 0.00 0.00 0.00 20 1018.1
20260906031215 76 194 1.7 7.8 0.00 0.00 0.00 21 1018.0
20260906030215 77 172 0.9 1.7 0.00 0.00 0.00 20 1017.9
20260906025215 77 192 0.9 3.5 0.00 0.00 0.00 20 1017.8
20260906024215 78 178 2.6 7.8 0.00 0.00 0.00 19 1017.2
20260906023215 78 177 2.6 7.0 0.00 0.00 0.00 19 1017.1
20260906022235 79 166 4.3 5.2 0.00 0.00 0.00 19 1017.3
20260906021215 79 173 2.6 6.1 0.00 0.00 0.00 20 1016.8
20260906020235 80 183 3.5 7.0 0.00 0.00 0.00 19 1016.8
20260906015215 81 184 3.5 6.1 0.00 0.00 0.00 19 1016.8
20260906014215 81 199 6.1 7.8 0.00 0.00 0.00 18 1016.4
20260906013215 82 196 4.3 10.4 0.00 0.00 0.00 18 1016.8
20260906012215 82 201 6.1 13.9 0.00 0.00 0.00 17 1016.8
20260906011215 83 199 7.0 12.2 0.00 0.00 0.00 17 1017.5
20260906010215 84 204 9.6 13.9 0.00 0.00 0.00 16 1017.5
20260906005215 84 202 10.4 16.5 0.00 0.00 0.00 16 1017.4
20260906004215 85 206 7.0 13.0 0.00 0.00 0.00 16 1017.7
20260906003217 85 213 11.3 16.5 0.00 0.00 0.00 17 1017.7
20260906002215 85 177 7.0 15.6 0.00 0.00 0.00 17 1017.8
20260906001237 85 187 7.8 12.2 0.00 0.00 0.00 17 1017.7
20260906000219 85 218 6.1 11.3 0.00 0.00 0.00 16 1017.7
20260905235217 85 235 12.2 18.2 0.00 0.00 0.00 16 1017.7
20260905234237 85 197 12.2 17.4 0.00 0.00 0.00 15 1018.2
20260905233257 85 201 6.1 12.2 0.00 0.00 0.00 16 1018.2
20260905232217 86 193 12.2 16.5 0.00 0.00 0.00 15 1018.4
20260905231217 85 176 6.1 9.6 0.00 0.00 0.00 16 1018.4
20260905230237 85 200 7.8 17.4 0.00 0.00 0.00 15 1018.6
20260905225217 85 203 7.0 14.8 0.00 0.00 0.00 16 1018.6
20260905224216 86 205 10.4 20.0 0.00 0.00 0.00 15 1019.0
20260905223216 85 209 10.4 17.4 0.00 0.00 0.00 15 1019.1
20260905222217 85 227 7.8 14.8 0.00 0.00 0.00 14 1019.1
20260905221216 85 223 8.7 14.8 0.00 0.00 0.00 14 1019.0
20260905220216 85 196 7.8 12.2 0.00 0.00 0.00 14 1019.1
20260905215216 85 198 8.7 14.8 0.00 0.00 0.00 13 1019.5
20260905214216 85 224 9.6 23.5 0.00 0.00 0.00 13 1019.7
20260905213217 85 204 7.8 13.9 0.00 0.00 0.00 14 1019.6
20260905212236 84 166 7.8 13.0 0.00 0.00 0.00 13 1019.6
20260905211216 83 154 6.1 13.9 0.00 0.00 0.00 21 1019.9
20260905210216 83 155 7.0 12.2 0.00 0.00 0.00 21 1019.9
20260905205216 83 159 5.2 8.7 0.00 0.00 0.00 22 1020.0
20260905204236 82 167 7.8 11.3 0.00 0.00 0.00 19 1019.4
20260905203216 82 183 5.2 9.6 0.00 0.00 0.00 23 1020.0
20260905202216 81 158 6.1 13.0 0.00 0.00 0.00 23 1019.9
20260905201216 81 158 7.8 12.2 0.00 0.00 0.00 23 1020.1
20260905200216 81 107 4.3 10.4 0.00 0.00 0.00 23 1020.1
20260905195236 81 162 6.1 15.6 0.00 0.00 0.00 23 1020.0
20260905194216 81 151 7.0 12.2 0.00 0.00 0.00 25 1020.3
20260905193216 80 104 7.0 13.9 0.00 0.00 0.00 25 1020.0
20260905192236 80 118 7.0 14.8 0.00 0.00 0.00 25 1020.2